Regional Weather Roundup
Issued by NWS

Home | Current Version | Previous Version | Text Only | Print | Product List | Glossary Off
Versions: 1 2 3 4 5 6 7 8 9 10 11 12 13 14 15 16 17 18 19 20 21 22 23 24 25 26 27 28 29 30 31 32 33 34 35 36 37 38 39 40 41 42 43 44 45 46 47 48 49 50

000
ASUS43 KMKX 201511
RWRWI

WISCONSIN REGIONAL WEATHER ROUNDUP
NATIONAL WEATHER SERVICE MILWAUKEE/SULLIVAN WI
1000 AM CDT WED AUG 20 2014

NOTE: "FAIR" INDICATES FEW OR NO CLOUDS BELOW 12,000 FEET WITH NO
SIGNIFICANT WEATHER AND/OR OBSTRUCTIONS TO VISIBILITY.

WIZ001-002-006>008-014>016-023>028-201600-
NORTHWEST WISCONSIN

CITY           SKY/WX    TMP DP  RH WIND       PRES   REMARKS
SUPERIOR ARPT  CLOUDY    65  61  88 CALM      29.89R
ASHLAND        CLOUDY    64  59  83 CALM      29.90S
HAYWARD        CLOUDY    65  60  84 CALM      29.91R
SIREN          CLOUDY    65  61  89 S3        29.91R
RICE LAKE      CLOUDY    65  60  83 S3        29.92R
LADYSMITH      CLOUDY    64  60  84 CALM      29.92R
EAU CLAIRE     CLOUDY    63  61  93 CALM      29.90S
MENOMONIE      MOSUNNY   65  60  84 CALM      29.90F
NEW RICHMOND   CLOUDY    65  62  90 NE7       29.90F
OSCEOLA        PTSUNNY   67  64  90 NE3       29.92F
$$

WIZ003>005-009-010-017-018-201600-
NORTH CENTRAL WISCONSIN

CITY           SKY/WX    TMP DP  RH WIND       PRES   REMARKS
WOODRUFF       CLOUDY    62  59  91 N6        29.91R
RHINELANDER    CLOUDY    62  57  83 NE6       29.90S
EAGLE RIVER    CLOUDY    61  58  91 NW7       29.91R
LAND O LAKES   CLOUDY    61  58  92 NW6       29.91R FOG
PHILLIPS       CLOUDY    62  58  88 NE6       29.89R
TOMAHAWK       CLOUDY    63  58  85 N5        29.90R
MEDFORD        CLOUDY    62  59  91 CALM      29.91R
MERRILL        CLOUDY    63  60  91 N3        29.89R
$$

WIZ029-030-035-036-043>047-201600-
CENTRAL WISCONSIN

CITY           SKY/WX    TMP DP  RH WIND       PRES   REMARKS
WAUSAU         CLOUDY    64  59  83 VRB3      29.87R
MOSINEE        CLOUDY    63  61  94 CALM      29.90R
MARSHFIELD     CLOUDY    61  59  93 W5        29.90R FOG
STEVENS POINT  CLOUDY    60  58  91 NW5       29.90R
WAUPACA        CLOUDY    66  62  85 CALM      29.89R
WAUTOMA        MOSUNNY   73  64  73 VRB3      29.87F
WISC RAPIDS    CLOUDY    65  61  87 NW7       29.90R
CAMP DOUGLAS   PTSUNNY   66  66 100 VRB1      29.88S
$$

WIZ011>013-019>022-031-037>040-048>050-201600-
NORTHEAST WISCONSIN

CITY           SKY/WX    TMP DP  RH WIND       PRES   REMARKS
ANTIGO         CLOUDY    63  59  89 N7        29.88R
STURGEON BAY   CLOUDY    64  59  82 N8        29.86R
GREEN BAY      CLOUDY    66  61  84 NW7       29.86R
MANITOWOC      PTSUNNY   68  62  81 VRB3      29.86R
APPLETON       PTSUNNY   66  61  82 W6        29.88R
CLINTONVILLE   CLOUDY    64  59  82 N6        29.87R
OSHKOSH        CLOUDY    69  63  81 VRB6      29.87R
$$

WIZ032>034-041-042-053>061-201600-
SOUTHWEST WISCONSIN

CITY           SKY/WX    TMP DP  RH WIND       PRES   REMARKS
LA CROSSE      CLOUDY    68  65  90 CALM      29.88R FOG
SPARTA         CLOUDY    65  65  98 CALM      29.89R
VIROQUA        FAIR      75  65  70 SW5       29.90R
BOSCOBEL       MOSUNNY   75  65  70 VRB5      29.88S
PRAIRIE DU CHI PTSUNNY   72  66  80 CALM      29.87F
PLATTEVILLE    FAIR      74  67  80 CALM      29.90R
$$

WIZ056-057-062-063-064-067-068-201600-
SOUTH CENTRAL WISCONSIN

CITY           SKY/WX    TMP DP  RH WIND       PRES   REMARKS
BARABOO/DELLS  SUNNY     73  63  69 CALM      29.88R
LONE ROCK      SUNNY     77  65  66 CALM      29.88R
WATERTOWN      SUNNY     74  67  80 W3        29.87R
MADISON        MOSUNNY   76  64  66 VRB5      29.88R
MIDDLETON      FAIR      78  63  59 W3        29.88S
MONROE         SUNNY     75  64  69 SW5       29.89S
JANESVILLE     SUNNY     79  63  57 VRB6      29.87S HX  80
$$

WIZ051-052-058>065-066-070>072-201600-
SOUTHEAST WISCONSIN

CITY           SKY/WX    TMP DP  RH WIND       PRES   REMARKS
MILWAUKEE      MOSUNNY   76  63  64 W9        29.86S
WAUKESHA       MOSUNNY   72  64  78 W6        29.89R
MILWAUKEE/TIMM SUNNY     73  63  68 W7        29.86S
RACINE         SUNNY     76  65  68 W7        29.88S
BURLINGTON     SUNNY     75  64  69 W3        29.88R
KENOSHA        SUNNY     77  67  71 W6        29.88R
FOND DU LAC    PTSUNNY   72  64  76 W6        29.87R
SHEBOYGAN      PTSUNNY   72  63  73 NW7       29.87R
WEST BEND      PTSUNNY   70  61  73 W5        29.87S
JUNEAU         SUNNY     73  40  31 CALM      29.88S
$$

LSZ147-162-201600-
LAKE SUPERIOR

STATION/POSITION TIME  TEMP    WIND        PRES    WAVE
                       AIR SEA DIR/SP/G            HT/PER
                 (UTC) (F)     (DEG/KT/KT) (MB)    (FT/S)
W MID LAKE BUOY  1450   58 56  260/  8/ 10 1011.5R   1
DEVILS ISLAND    1500   61     240/  5/  7 1012.2R
PORT WING        1400   63      CALM  /  2 1012.2
SAXON HARBOR     1340   61      CALM  /  3 1012.2R
$$

LMZ867-665-643>646-201600-
LAKE MICHIGAN

STATION/POSITION TIME  TEMP    WIND        PRES    WAVE
                       AIR SEA DIR/SP/G            HT/PER
                 (UTC) (F)     (DEG/KT/KT) (MB)    (FT/S)
N MID LAKE BUOY  1450   61 62  330/  8/  8 1009.6R   1/ 3
NORTHPORT PIER   1400   62     350/  8/  9 1009.8S
KEWAUNEE LAKESHO 1400   65     260/  2/  4 1009.4R
SHEBOYGAN LAKESH 1500   66 64   70/  3/  4 1011.3R
ATWATER BUOY     1500   69      60/  4     1012.4S
MILWAUKEE LAKESH 1400   70     120/  3/  4   N/A
S MID LAKE BUOY  1450   68 67  270/  4/  6 1011.3R   0
KENOSHA   LAKESH 1500   76     260/  9/ 12 1011.2S
$$

TC  - TEMPERATURE IN CELSIUS
VSB - VISIBILITY IN STATUTE MILES
WCI - WIND CHILL INDEX
HX  - HEAT INDEX



USA.gov is the U.S. government's official web portal to all federal, state and local government web resources and services.